Kuchera_Ratio
0.0 0.0 0.0 0.0 0.0 0.0 0.0 0.0 0.0 0.0 0.0 0.0 0.0 0.0 0.0 0.0 0.0 0.0 0.0 0.0 0.0 0.0 0.0 0.0 0.0 0.0 0.0
0.0 0.0 0.0 0.0 0.0 0.0 0.0 0.0 0.0 0.0 0.0 0.0 0.0 0.0 0.0 0.0 0.0 0.0 0.0 0.0 0.0 0.0 0.0 0.0 0.0 0.0 0.0
0.0 0.0 0.0 0.0 0.0 0.0 0.0 0.0 0.0 0.0 0.0 0.0 0.0 0.0 0.0 0.0 0.0 0.0 0.0 0.0 0.0 0.0 0.0 0.0 0.0 0.0 0.0
0.0 0.0 0.0 0.0 0.0 0.0 0.0 0.0 0.0 0.0 0.0 0.0 0.0 0.0 0.0 0.0 0.0 0.0 0.0 0.0 0.0 0.0 0.0 0.0 0.0 0.0 0.0
0.0 0.0 0.0 0.0 0.0 0.0 0.0 0.0 0.0 0.0 0.0 0.0 0.0 0.0 0.0 0.0 0.0 0.0 0.0 0.0 0.0 0.0 0.0 0.0 0.0 0.0 0.0
0.0 0.0 0.0 0.0 0.0 0.0 0.0 0.0 0.0 0.0 0.0 0.0 0.0 0.0 0.0 0.0 0.0 0.0 0.0 0.0 0.0 0.0 0.0 0.0 0.0 0.0 0.0
1.3 1.2 0.1 0.0 0.0 0.0 0.0 0.2 0.9 0.0 0.0 0.0 0.0 0.0 0.0 0.0 0.0 0.0 0.0 0.0 0.0 0.0 0.0 0.0 0.0 0.0 0.0
1.8 2.0 0.0 0.0 0.0 0.0 0.0 0.9 0.0 0.0 0.0 1.1 0.0 0.0 0.0 0.0 0.0 0.0 0.0 0.0 0.0 0.0 0.0 0.0 0.0 0.0 0.0
0.0 0.0 0.0 0.0 0.0 0.8 4.2 6.0 7.1 2.4 1.3 4.4 0.8 1.0 0.0 0.0 0.0 0.0 0.0 0.0 0.0 0.0 0.0 0.0 0.0 0.0 0.0
5.8 5.0 3.3 6.4 0.6 4.4 5.7 9.2 9.3 8.9 5.3 7.5 6.9 6.4 6.5 0.0 0.0 0.0 0.2 0.0 0.0 0.0 0.0 0.0 0.0 0.0 0.0
6.3 7.7 8.4 8.5 8.9 9.6 10.2 8.9 10.2 10.0 4.8 6.6 9.2 7.9 7.4 6.9 4.6 2.5 2.6 1.7 1.7 0.4 0.0 0.0 0.0 0.0 0.0
7.5 7.5 9.7 9.4 8.7 10.1 10.8 11.3 7.3 8.4 6.3 6.6 10.2 9.1 10.4 10.8 10.0 7.5 4.3 3.1 4.0 4.4 3.1 0.0 0.0 0.0 0.0
7.5 7.9 9.6 8.6 10.6 11.8 11.5 12.0 10.8 7.9 5.6 6.8 8.9 8.8 10.3 11.9 11.9 10.0 9.7 8.5 6.5 8.8 6.1 5.0 4.6 3.3 3.6
10.4 10.1 10.5 12.0 12.1 12.2 12.9 12.5 13.2 13.3 9.7 7.4 7.7 8.8 11.0 10.9 12.1 12.4 11.5 12.6 9.6 10.5 10.6 8.1 6.8 5.2 5.5
11.7 12.3 12.5 12.8 13.2 12.8 13.4 13.9 14.0 13.8 14.0 11.6 11.0 8.5 8.9 10.5 12.4 12.1 12.8 12.4 11.6 11.4 11.5 11.8 9.6 10.2 8.3
12.0 12.7 13.2 13.4 14.1 14.4 14.2 14.9 15.0 14.7 14.5 13.5 12.6 13.1 12.7 9.7 6.9 12.5 12.4 13.3 12.2 11.6 12.0 12.4 12.6 11.3 11.0
12.4 12.7 12.9 13.8 13.9 13.8 13.2 14.5 15.6 15.1 14.5 13.9 13.9 14.3 15.8 16.4 11.0 4.0 12.5 12.3 12.5 12.6 11.8 12.1 13.1 11.2 12.0